DLH411 KJFK-EDDM

Flight info

Callsign DLH411
Flight time N/A
Altitude 39000
Route BETTE DCT ACK DCT KANNI N97B SUPRY/M084F400 DCT 46N050W 48N040W 50N030W 52N020W DCT LIMRI DCT XETBO/N0487F410 DCT EVRIN DCT JETZI DCT AMFUL DCT CAWZE DCT SIRIC P2 DVR UL9 KONAN UL607 KOK DCT REMBA DCT SPI DCT MOVUM T109 HAREM/N0489F350 T104 ELMOX/N0490F270 T104 ROKIL ROKIL1B
Aircraft A359/H-SDE2E3GHIJ3J4J5LM1ORWXY/LB1D1

Departure

Time 2026-05-05 08:04
Airport John F. Kennedy International Airport (KJFK)

Arrival

Time N/A
Airport Munich Airport (EDDM)
Time Latitude Longitude Altitude Speed Heading
2026-05-05 07:36 40.63846 -73.78031 29 ft 0 kts 263°
2026-05-05 07:53 40.63849 -73.78001 29 ft 4 kts 263°
2026-05-05 07:53 40.63852 -73.77966 28 ft 3 kts 263°
2026-05-05 07:53 40.63857 -73.77938 26 ft 4 kts 225°
2026-05-05 07:54 40.63878 -73.77930 26 ft 4 kts 171°
2026-05-05 07:54 40.63892 -73.77933 27 ft 0 kts 174°
2026-05-05 07:57 40.63884 -73.77932 26 ft 5 kts 175°
2026-05-05 07:57 40.63836 -73.77926 27 ft 8 kts 171°
2026-05-05 07:57 40.63769 -73.77913 29 ft 11 kts 172°
2026-05-05 07:58 40.63684 -73.77898 29 ft 14 kts 173°
2026-05-05 07:58 40.63594 -73.77877 29 ft 13 kts 156°
2026-05-05 07:58 40.63531 -73.77778 28 ft 16 kts 120°
2026-05-05 07:58 40.63529 -73.77698 27 ft 6 kts 53°
2026-05-05 07:59 40.63568 -73.77654 27 ft 8 kts 30°
2026-05-05 07:59 40.63629 -73.77607 27 ft 12 kts 30°
2026-05-05 07:59 40.63712 -73.77543 28 ft 16 kts 30°
2026-05-05 07:59 40.63799 -73.77476 26 ft 13 kts 29°
2026-05-05 08:00 40.63882 -73.77414 27 ft 14 kts 30°
2026-05-05 08:00 40.63974 -73.77343 27 ft 17 kts 30°
2026-05-05 08:00 40.64073 -73.77267 30 ft 15 kts 30°
2026-05-05 08:00 40.64162 -73.77199 31 ft 16 kts 30°
2026-05-05 08:01 40.64214 -73.77158 30 ft 18 kts 31°
2026-05-05 08:01 40.64329 -73.77068 29 ft 18 kts 31°
2026-05-05 08:01 40.64449 -73.76999 31 ft 21 kts 10°
2026-05-05 08:01 40.64589 -73.76925 27 ft 21 kts 31°
2026-05-05 08:02 40.64721 -73.76821 25 ft 23 kts 31°
2026-05-05 08:02 40.64861 -73.76711 28 ft 23 kts 31°
2026-05-05 08:02 40.64990 -73.76611 27 ft 19 kts 31°
2026-05-05 08:02 40.65066 -73.76552 28 ft 8 kts 28°
2026-05-05 08:03 40.65069 -73.76552 28 ft 0 kts 20°
2026-05-05 08:03 40.65078 -73.76538 28 ft 5 kts 49°
2026-05-05 08:03 40.65081 -73.76465 28 ft 11 kts 97°
2026-05-05 08:03 40.65044 -73.76380 29 ft 7 kts 149°
2026-05-05 08:04 40.64936 -73.76421 28 ft 32 kts 212°
2026-05-05 08:04 40.64536 -73.76736 26 ft 102 kts 211°
2026-05-05 08:04 40.63733 -73.77357 40 ft 162 kts 209°
2026-05-05 08:04 40.62741 -73.78102 720 ft 164 kts 208°
2026-05-05 08:05 40.61726 -73.78811 1544 ft 166 kts 212°
2026-05-05 08:05 40.60660 -73.79523 2165 ft 180 kts 213°
2026-05-05 08:05 40.59482 -73.80335 2595 ft 203 kts 217°
2026-05-05 08:05 40.58244 -73.81442 3012 ft 226 kts 220°
2026-05-05 08:06 40.56854 -73.82527 3711 ft 240 kts 208°
2026-05-05 08:06 40.55208 -73.83035 4473 ft 256 kts 187°
2026-05-05 08:06 40.53432 -73.82494 5297 ft 274 kts 157°
2026-05-05 08:06 40.52054 -73.80698 6198 ft 289 kts 123°
2026-05-05 08:07 40.51470 -73.78138 7098 ft 297 kts 98°
2026-05-05 08:07 40.51237 -73.75424 7976 ft 300 kts 103°
2026-05-05 08:07 40.50772 -73.72732 8900 ft 304 kts 106°
2026-05-05 08:07 40.50287 -73.70005 9826 ft 309 kts 100°
2026-05-05 08:08 40.50162 -73.67146 10521 ft 322 kts 90°
2026-05-05 08:08 40.50257 -73.64098 10920 ft 345 kts 86°
2026-05-05 08:08 40.50497 -73.60861 11295 ft 367 kts 84°
2026-05-05 08:08 40.50825 -73.57444 11811 ft 382 kts 83°
2026-05-05 08:09 40.51181 -73.53988 12547 ft 389 kts 83°
2026-05-05 08:09 40.51542 -73.50442 13363 ft 395 kts 83°
2026-05-05 08:09 40.51896 -73.46838 14120 ft 400 kts 83°
2026-05-05 08:09 40.52239 -73.43191 14845 ft 404 kts 84°
2026-05-05 08:10 40.52574 -73.39513 15605 ft 408 kts 84°
2026-05-05 08:10 40.52907 -73.35789 16346 ft 411 kts 84°
2026-05-05 08:10 40.53238 -73.32041 17098 ft 415 kts 85°
2026-05-05 08:10 40.53572 -73.28247 17831 ft 419 kts 85°
2026-05-05 08:11 40.53906 -73.24432 18529 ft 423 kts 85°
2026-05-05 08:11 40.54243 -73.20572 19186 ft 427 kts 85°
2026-05-05 08:11 40.54584 -73.16671 19894 ft 430 kts 85°
2026-05-05 08:11 40.54926 -73.12750 20612 ft 433 kts 85°
2026-05-05 08:12 40.55268 -73.08808 21339 ft 436 kts 85°
2026-05-05 08:12 40.55614 -73.04834 22045 ft 439 kts 84°
2026-05-05 08:12 40.56181 -73.00868 22748 ft 444 kts 76°
2026-05-05 08:12 40.57016 -72.96997 23415 ft 447 kts 74°
2026-05-05 08:13 40.57956 -72.93077 24011 ft 451 kts 72°
2026-05-05 08:13 40.58954 -72.89146 24536 ft 456 kts 71°
2026-05-05 08:13 40.59985 -72.85177 25118 ft 459 kts 71°
2026-05-05 08:13 40.61029 -72.81178 25669 ft 463 kts 71°
2026-05-05 08:14 40.62072 -72.77163 26269 ft 465 kts 71°
2026-05-05 08:14 40.63117 -72.73112 26779 ft 469 kts 71°
2026-05-05 08:14 40.64163 -72.69028 27315 ft 473 kts 71°
2026-05-05 08:14 40.65212 -72.64906 27827 ft 476 kts 71°
2026-05-05 08:15 40.66263 -72.60764 28347 ft 480 kts 71°
2026-05-05 08:15 40.67322 -72.56580 28872 ft 482 kts 71°
2026-05-05 08:15 40.68025 -72.53800 29213 ft 484 kts 71°
2026-05-05 08:15 40.69092 -72.49570 29702 ft 488 kts 71°
2026-05-05 08:16 40.70164 -72.45317 30145 ft 491 kts 71°
2026-05-05 08:16 40.71594 -72.39631 30671 ft 494 kts 71°
2026-05-05 08:16 40.72324 -72.36722 30923 ft 496 kts 71°
2026-05-05 08:16 40.73409 -72.32395 31306 ft 498 kts 71°
2026-05-05 08:17 40.74482 -72.28109 31671 ft 500 kts 71°
2026-05-05 08:17 40.75574 -72.23738 31993 ft 502 kts 71°
2026-05-05 08:17 40.76667 -72.19352 32332 ft 504 kts 71°
2026-05-05 08:17 40.77762 -72.14952 32683 ft 506 kts 71°
2026-05-05 08:18 40.78861 -72.10531 33085 ft 506 kts 71°
2026-05-05 08:18 40.79950 -72.06135 33621 ft 504 kts 70°
2026-05-05 08:18 40.81035 -72.01748 34069 ft 502 kts 70°
2026-05-05 08:18 40.82119 -71.97361 34439 ft 501 kts 70°
2026-05-05 08:19 40.83200 -71.92978 34707 ft 503 kts 70°
2026-05-05 08:19 40.84283 -71.88579 34986 ft 504 kts 70°
2026-05-05 08:19 40.85365 -71.84175 35283 ft 505 kts 70°
2026-05-05 08:19 40.86447 -71.79762 35570 ft 506 kts 70°
2026-05-05 08:20 40.87529 -71.75342 35853 ft 506 kts 70°
2026-05-05 08:20 40.88612 -71.70907 36129 ft 507 kts 70°
2026-05-05 08:20 40.89695 -71.66466 36397 ft 508 kts 70°
2026-05-05 08:20 40.90780 -71.62007 36659 ft 509 kts 70°
2026-05-05 08:21 40.91851 -71.57598 36923 ft 510 kts 70°
2026-05-05 08:21 40.92933 -71.53134 37168 ft 511 kts 70°
2026-05-05 08:21 40.94015 -71.48659 37440 ft 511 kts 70°
2026-05-05 08:21 40.95097 -71.44178 37711 ft 511 kts 70°
2026-05-05 08:22 40.96178 -71.39693 37941 ft 512 kts 70°
2026-05-05 08:22 40.97257 -71.35206 38174 ft 513 kts 70°
2026-05-05 08:22 40.98338 -71.30705 38420 ft 513 kts 70°
2026-05-05 08:22 40.99417 -71.26200 38626 ft 514 kts 70°
2026-05-05 08:23 41.00496 -71.21688 38807 ft 514 kts 70°
2026-05-05 08:23 41.01573 -71.17175 38947 ft 515 kts 70°
2026-05-05 08:23 41.03722 -71.08140 38986 ft 514 kts 70°
2026-05-05 08:24 41.05868 -70.99081 38988 ft 514 kts 70°
2026-05-05 08:24 41.07994 -70.90079 38987 ft 514 kts 70°
2026-05-05 08:25 41.10125 -70.81017 38993 ft 515 kts 70°
2026-05-05 08:25 41.12254 -70.71927 38992 ft 516 kts 70°
2026-05-05 08:26 41.14376 -70.62829 38990 ft 516 kts 70°
2026-05-05 08:26 41.16488 -70.53741 38988 ft 516 kts 70°
2026-05-05 08:27 41.18597 -70.44627 38993 ft 517 kts 70°
2026-05-05 08:27 41.20703 -70.35490 38994 ft 517 kts 71°
2026-05-05 08:28 41.22785 -70.26419 38999 ft 517 kts 71°
2026-05-05 08:28 41.24876 -70.17271 39000 ft 517 kts 71°
2026-05-05 08:29 41.26961 -70.08117 39003 ft 518 kts 71°
2026-05-05 08:30 41.31603 -69.95335 38999 ft 511 kts 55°
2026-05-05 08:30 41.35339 -69.87280 39001 ft 511 kts 54°
2026-05-05 08:31 41.39121 -69.79257 39007 ft 512 kts 54°
2026-05-05 08:31 41.42890 -69.71204 39012 ft 512 kts 54°
2026-05-05 08:32 41.46646 -69.63120 39014 ft 513 kts 54°
2026-05-05 08:32 41.50369 -69.55070 39010 ft 513 kts 55°
2026-05-05 08:33 41.54108 -69.46962 39014 ft 514 kts 55°
2026-05-05 08:33 41.57854 -69.38824 39020 ft 514 kts 55°
2026-05-05 08:34 41.61592 -69.30678 39008 ft 514 kts 55°
2026-05-05 08:34 41.65328 -69.22514 39013 ft 514 kts 55°
2026-05-05 08:35 41.69059 -69.14342 39011 ft 515 kts 55°
2026-05-05 08:35 41.72788 -69.06152 39010 ft 515 kts 55°
2026-05-05 08:36 41.76507 -68.97959 39014 ft 515 kts 55°
2026-05-05 08:36 41.80224 -68.89750 39007 ft 515 kts 55°
2026-05-05 08:37 41.83934 -68.81534 39018 ft 515 kts 55°
2026-05-05 08:37 41.87641 -68.73301 39010 ft 515 kts 55°
2026-05-05 08:38 41.91326 -68.65095 39011 ft 515 kts 56°
2026-05-05 08:38 41.95021 -68.56845 39013 ft 515 kts 56°
2026-05-05 08:39 41.98710 -68.48584 39010 ft 516 kts 56°
2026-05-05 08:39 42.02396 -68.40308 39012 ft 516 kts 56°
2026-05-05 08:40 42.06075 -68.32025 39010 ft 516 kts 56°
2026-05-05 08:40 42.09753 -68.23720 39013 ft 516 kts 56°
2026-05-05 08:41 42.13406 -68.15450 39014 ft 516 kts 56°
2026-05-05 08:41 42.17078 -68.07113 39008 ft 517 kts 56°
2026-05-05 08:42 42.20744 -67.98765 39009 ft 517 kts 56°
2026-05-05 08:42 42.24405 -67.90406 39022 ft 517 kts 56°
2026-05-05 08:43 42.28055 -67.82049 39010 ft 517 kts 56°
2026-05-05 08:43 42.31703 -67.73672 39010 ft 517 kts 56°
2026-05-05 08:44 42.35320 -67.65343 39009 ft 517 kts 56°
2026-05-05 08:44 42.38954 -67.56952 39015 ft 516 kts 56°
2026-05-05 08:45 42.42582 -67.48550 39006 ft 518 kts 56°
2026-05-05 08:45 42.46213 -67.40119 39013 ft 518 kts 57°
2026-05-05 08:46 42.49846 -67.31657 39006 ft 519 kts 57°
2026-05-05 08:46 42.53469 -67.23195 39010 ft 519 kts 57°
2026-05-05 08:47 42.57065 -67.14771 39011 ft 520 kts 57°
2026-05-05 08:47 42.60693 -67.06249 39015 ft 521 kts 57°
2026-05-05 08:48 42.63958 -66.97459 39029 ft 524 kts 66°
2026-05-05 08:48 42.66552 -66.88200 39018 ft 525 kts 68°
2026-05-05 08:49 42.69028 -66.78855 39016 ft 525 kts 68°
2026-05-05 08:49 42.71492 -66.69481 39016 ft 526 kts 68°
2026-05-05 08:50 42.73949 -66.60162 39030 ft 527 kts 68°
2026-05-05 08:50 42.76419 -66.50783 39014 ft 527 kts 68°
2026-05-05 08:51 42.78885 -66.41394 39018 ft 527 kts 68°
2026-05-05 08:51 42.81330 -66.32046 39018 ft 527 kts 68°
2026-05-05 08:52 42.83783 -66.22630 39019 ft 528 kts 68°
2026-05-05 08:52 42.86232 -66.13191 39023 ft 528 kts 68°
2026-05-05 08:53 42.88676 -66.03734 39018 ft 528 kts 68°
2026-05-05 08:53 42.91110 -65.94275 39021 ft 528 kts 68°
2026-05-05 08:54 42.93539 -65.84800 39020 ft 528 kts 68°
2026-05-05 08:54 42.95962 -65.75314 39017 ft 530 kts 69°
2026-05-05 08:55 42.98370 -65.65845 39016 ft 531 kts 69°
2026-05-05 08:55 43.00786 -65.56306 39021 ft 531 kts 69°
2026-05-05 08:56 43.03193 -65.46761 39019 ft 531 kts 69°
2026-05-05 08:56 43.05593 -65.37209 39028 ft 531 kts 69°
2026-05-05 08:57 43.07994 -65.27616 39020 ft 533 kts 69°
2026-05-05 08:57 43.10394 -65.17986 39024 ft 535 kts 69°
2026-05-05 08:58 43.12772 -65.08399 39022 ft 535 kts 69°
2026-05-05 08:58 43.15159 -64.98739 39040 ft 535 kts 69°
2026-05-05 08:59 43.17539 -64.89065 39024 ft 536 kts 69°
2026-05-05 08:59 43.19915 -64.79368 39026 ft 536 kts 69°
2026-05-05 09:00 43.22285 -64.69656 39028 ft 537 kts 69°
2026-05-05 09:00 43.24648 -64.59930 39033 ft 537 kts 69°
2026-05-05 09:01 43.26990 -64.50252 39034 ft 538 kts 69°
2026-05-05 09:01 43.29344 -64.40476 39027 ft 538 kts 69°
2026-05-05 09:02 43.31686 -64.30712 39027 ft 538 kts 69°
2026-05-05 09:02 43.34004 -64.21007 39022 ft 538 kts 70°
2026-05-05 09:03 43.36334 -64.11208 39036 ft 539 kts 70°
2026-05-05 09:03 43.38654 -64.01411 39030 ft 539 kts 70°
2026-05-05 09:04 43.40964 -63.91612 39039 ft 538 kts 70°
2026-05-05 09:04 43.42878 -63.83458 39030 ft 538 kts 70°
2026-05-05 09:05 43.45557 -63.71997 39039 ft 539 kts 70°
2026-05-05 09:05 43.47827 -63.62239 39031 ft 539 kts 70°
2026-05-05 09:06 43.50103 -63.52414 39027 ft 539 kts 70°
2026-05-05 09:06 43.52003 -63.44174 39028 ft 538 kts 70°
2026-05-05 09:07 43.54267 -63.34319 39031 ft 539 kts 70°
2026-05-05 09:07 43.56519 -63.24470 39031 ft 538 kts 70°
2026-05-05 09:08 43.58750 -63.14670 39028 ft 538 kts 70°
2026-05-05 09:08 43.60988 -63.04795 39034 ft 538 kts 70°
2026-05-05 09:09 43.63215 -62.94922 39037 ft 539 kts 70°
2026-05-05 09:09 43.65435 -62.85035 39037 ft 538 kts 71°
2026-05-05 09:10 43.67645 -62.75150 39039 ft 539 kts 71°
2026-05-05 09:10 43.69848 -62.65251 39037 ft 539 kts 71°
2026-05-05 09:11 43.72044 -62.55336 39035 ft 540 kts 71°
2026-05-05 09:11 43.74237 -62.45390 39048 ft 540 kts 71°
2026-05-05 09:12 43.76406 -62.35506 39037 ft 541 kts 71°
2026-05-05 09:12 43.78583 -62.25537 39039 ft 541 kts 71°
2026-05-05 09:13 43.80751 -62.15564 39033 ft 541 kts 71°
2026-05-05 09:13 43.82917 -62.05555 39043 ft 542 kts 71°
2026-05-05 09:14 43.85073 -61.95543 39040 ft 543 kts 72°
2026-05-05 09:14 43.87222 -61.85514 39039 ft 543 kts 72°
2026-05-05 09:15 43.89365 -61.75466 39046 ft 543 kts 72°
2026-05-05 09:15 43.91482 -61.65489 39045 ft 543 kts 72°
2026-05-05 09:16 43.93609 -61.55422 39048 ft 544 kts 72°
2026-05-05 09:16 43.95729 -61.45334 39045 ft 545 kts 72°
2026-05-05 09:17 43.97843 -61.35226 39050 ft 545 kts 72°
2026-05-05 09:17 43.99947 -61.25117 39045 ft 545 kts 72°
2026-05-05 09:18 44.02040 -61.15011 39060 ft 545 kts 72°
2026-05-05 09:18 44.04126 -61.04886 39047 ft 545 kts 73°
2026-05-05 09:19 44.06205 -60.94748 39051 ft 546 kts 73°
2026-05-05 09:19 44.08280 -60.84576 39051 ft 546 kts 73°
2026-05-05 09:20 44.10328 -60.74487 39048 ft 546 kts 73°
2026-05-05 09:20 44.12383 -60.64312 39050 ft 546 kts 73°
2026-05-05 09:21 44.14430 -60.54125 39042 ft 545 kts 73°
2026-05-05 09:21 44.16467 -60.43937 39048 ft 546 kts 73°
2026-05-05 09:22 44.18496 -60.33732 39048 ft 547 kts 73°
2026-05-05 09:22 44.20517 -60.23519 39053 ft 546 kts 74°
2026-05-05 09:23 44.22515 -60.13369 39048 ft 546 kts 74°
2026-05-05 09:23 44.24517 -60.03145 39049 ft 546 kts 74°
2026-05-05 09:24 44.26510 -59.92915 39039 ft 547 kts 74°
2026-05-05 09:24 44.28499 -59.82647 39065 ft 548 kts 74°
2026-05-05 09:25 44.30479 -59.72374 39045 ft 549 kts 75°
2026-05-05 09:25 44.32444 -59.62125 39050 ft 548 kts 75°
2026-05-05 09:26 44.34408 -59.51826 39045 ft 548 kts 75°
2026-05-05 09:26 44.36362 -59.41522 39035 ft 549 kts 75°
2026-05-05 09:27 44.38312 -59.31185 39041 ft 551 kts 75°
2026-05-05 09:27 44.40249 -59.20861 39050 ft 551 kts 75°
2026-05-05 09:28 44.42185 -59.10483 39048 ft 551 kts 75°
2026-05-05 09:28 44.44114 -59.00085 39045 ft 551 kts 75°
2026-05-05 09:29 44.46030 -58.89702 39048 ft 551 kts 75°
2026-05-05 09:29 44.47943 -58.79276 39044 ft 552 kts 75°
2026-05-05 09:30 44.49846 -58.68846 39049 ft 553 kts 76°
2026-05-05 09:30 44.51739 -58.58413 39051 ft 553 kts 76°
2026-05-05 09:31 44.53626 -58.47955 39054 ft 553 kts 76°
2026-05-05 09:31 44.55490 -58.37561 39047 ft 554 kts 76°
2026-05-05 09:32 44.57361 -58.27074 39043 ft 554 kts 76°
2026-05-05 09:32 44.59224 -58.16567 39048 ft 555 kts 76°
2026-05-05 09:33 44.61078 -58.06048 39041 ft 556 kts 76°
2026-05-05 09:33 44.62923 -57.95520 39041 ft 555 kts 76°
2026-05-05 09:34 44.64758 -57.84992 39043 ft 555 kts 76°
2026-05-05 09:34 44.66587 -57.74432 39041 ft 555 kts 76°
2026-05-05 09:35 44.68401 -57.63893 39040 ft 555 kts 76°
2026-05-05 09:35 44.71106 -57.48065 39042 ft 555 kts 77°
2026-05-05 09:36 44.72899 -57.37496 39045 ft 555 kts 77°
2026-05-05 09:36 44.74679 -57.26934 39045 ft 555 kts 77°
2026-05-05 09:37 44.76440 -57.16425 39036 ft 555 kts 77°
2026-05-05 09:37 44.78206 -57.05822 39046 ft 557 kts 77°
2026-05-05 09:38 44.79964 -56.95197 39042 ft 557 kts 77°
2026-05-05 09:38 44.81715 -56.84551 39042 ft 557 kts 77°
2026-05-05 09:39 44.83455 -56.73909 39045 ft 557 kts 77°
2026-05-05 09:39 44.85186 -56.63254 39052 ft 557 kts 77°
2026-05-05 09:40 44.86897 -56.52651 39042 ft 559 kts 78°
2026-05-05 09:40 44.88614 -56.41940 39045 ft 560 kts 78°
2026-05-05 09:41 44.90324 -56.31214 39045 ft 560 kts 78°
2026-05-05 09:41 44.92020 -56.20496 39042 ft 560 kts 78°
2026-05-05 09:42 44.93709 -56.09758 39040 ft 560 kts 78°
2026-05-05 09:42 44.95378 -55.99077 39024 ft 560 kts 78°
2026-05-05 09:43 44.97048 -55.88317 39039 ft 561 kts 78°
2026-05-05 09:43 44.98710 -55.77543 39049 ft 562 kts 78°
2026-05-05 09:44 45.00364 -55.66744 39043 ft 561 kts 78°
2026-05-05 09:44 45.02005 -55.55960 39042 ft 561 kts 79°
2026-05-05 09:45 45.03635 -55.45169 39045 ft 561 kts 79°
2026-05-05 09:45 45.05246 -55.34439 39038 ft 561 kts 79°
2026-05-05 09:46 45.06859 -55.23617 39052 ft 561 kts 79°
2026-05-05 09:46 45.08458 -55.12818 39039 ft 560 kts 79°
2026-05-05 09:47 45.10046 -55.02013 39050 ft 560 kts 79°
2026-05-05 09:47 45.11624 -54.91207 39048 ft 560 kts 79°
2026-05-05 09:48 45.13190 -54.80400 39035 ft 560 kts 79°
2026-05-05 09:48 45.14738 -54.69646 39051 ft 560 kts 80°
2026-05-05 09:49 45.16283 -54.58836 39050 ft 560 kts 80°
2026-05-05 09:49 45.17819 -54.48016 39051 ft 560 kts 80°
2026-05-05 09:50 45.19345 -54.37186 39048 ft 560 kts 80°
2026-05-05 09:50 45.20860 -54.26353 39050 ft 560 kts 80°
2026-05-05 09:51 45.22365 -54.15512 39047 ft 561 kts 81°
2026-05-05 09:51 45.23864 -54.04634 39053 ft 562 kts 81°
2026-05-05 09:52 45.25352 -53.93756 39061 ft 562 kts 81°
2026-05-05 09:52 45.26830 -53.82876 39059 ft 561 kts 81°
2026-05-05 09:53 45.28050 -53.73830 39059 ft 561 kts 81°
2026-05-05 09:53 45.29743 -53.61177 39058 ft 561 kts 81°
2026-05-05 09:54 45.30958 -53.52028 39066 ft 563 kts 81°
2026-05-05 09:54 45.32400 -53.41096 39064 ft 563 kts 81°
2026-05-05 09:55 45.33823 -53.30224 39069 ft 563 kts 81°
2026-05-05 09:55 45.35241 -53.19303 39061 ft 562 kts 82°
2026-05-05 09:56 45.36654 -53.08335 39073 ft 562 kts 82°
2026-05-05 09:56 45.38054 -52.97381 39063 ft 564 kts 82°
2026-05-05 09:57 45.39447 -52.86389 39079 ft 565 kts 82°
2026-05-05 09:57 45.40830 -52.75395 39072 ft 564 kts 82°
2026-05-05 09:58 45.42201 -52.64405 39072 ft 564 kts 82°
2026-05-05 09:58 45.43561 -52.53412 39073 ft 564 kts 82°
2026-05-05 09:59 45.44911 -52.42411 39055 ft 564 kts 82°
2026-05-05 09:59 45.46250 -52.31405 39083 ft 564 kts 82°
2026-05-05 10:00 45.47580 -52.20388 39081 ft 565 kts 82°
2026-05-05 10:00 45.48900 -52.09357 39080 ft 565 kts 82°
2026-05-05 10:01 45.50551 -51.98413 39086 ft 566 kts 72°
2026-05-05 10:01 45.53132 -51.87792 39079 ft 567 kts 71°
2026-05-05 10:02 45.55870 -51.77265 39076 ft 566 kts 70°
2026-05-05 10:02 45.58606 -51.66795 39077 ft 566 kts 70°
2026-05-05 10:03 45.61330 -51.56244 39081 ft 566 kts 70°
2026-05-05 10:03 45.64033 -51.45670 39086 ft 566 kts 71°
2026-05-05 10:04 45.66721 -51.35100 39085 ft 565 kts 71°
2026-05-05 10:04 45.69396 -51.24533 39094 ft 565 kts 71°
2026-05-05 10:05 45.72066 -51.13940 39096 ft 565 kts 71°
2026-05-05 10:05 45.74721 -51.03357 39091 ft 564 kts 71°
2026-05-05 10:06 45.77364 -50.92777 39086 ft 564 kts 71°
2026-05-05 10:06 45.79985 -50.82232 39097 ft 565 kts 71°
2026-05-05 10:07 45.82612 -50.71619 39100 ft 565 kts 72°
2026-05-05 10:07 45.85227 -50.60999 39094 ft 564 kts 72°
2026-05-05 10:08 45.87831 -50.50377 39098 ft 564 kts 72°
2026-05-05 10:08 45.90426 -50.39740 39099 ft 564 kts 72°
2026-05-05 10:09 45.93010 -50.29100 39102 ft 564 kts 72°
2026-05-05 10:09 45.95581 -50.18462 39110 ft 563 kts 72°
2026-05-05 10:10 45.98122 -50.07898 39086 ft 563 kts 72°
2026-05-05 10:10 46.00678 -49.97239 39200 ft 565 kts 72°
2026-05-05 10:11 46.01996 -49.91913 39411 ft 564 kts 71°
2026-05-05 10:11 46.03332 -49.86618 39637 ft 563 kts 71°
2026-05-05 10:11 46.04673 -49.81328 39830 ft 562 kts 71°
2026-05-05 10:11 46.06010 -49.76044 40035 ft 561 kts 71°
2026-05-05 10:12 46.07335 -49.70775 40213 ft 560 kts 71°
2026-05-05 10:12 46.08654 -49.65498 40390 ft 559 kts 71°
2026-05-05 10:12 46.09969 -49.60212 40592 ft 558 kts 71°
2026-05-05 10:12 46.11271 -49.54958 40803 ft 557 kts 72°
2026-05-05 10:13 46.12569 -49.49705 40995 ft 556 kts 72°
2026-05-05 10:13 46.13862 -49.44457 41103 ft 556 kts 72°
2026-05-05 10:13 46.16447 -49.33931 41124 ft 556 kts 72°
2026-05-05 10:14 46.19004 -49.23472 41131 ft 556 kts 72°
2026-05-05 10:14 46.21568 -49.12939 41133 ft 556 kts 72°
2026-05-05 10:15 46.24122 -49.02397 41135 ft 556 kts 72°
2026-05-05 10:15 46.26665 -48.91851 41135 ft 556 kts 72°
2026-05-05 10:16 46.29199 -48.81293 41140 ft 556 kts 72°
2026-05-05 10:16 46.31721 -48.70734 41142 ft 555 kts 72°
2026-05-05 10:17 46.34231 -48.60172 41143 ft 555 kts 72°
2026-05-05 10:17 46.36732 -48.49599 41143 ft 555 kts 72°
2026-05-05 10:18 46.39206 -48.39093 41152 ft 554 kts 73°
2026-05-05 10:18 46.41678 -48.28539 41151 ft 553 kts 73°
2026-05-05 10:19 46.44141 -48.17978 41152 ft 554 kts 73°
2026-05-05 10:19 46.46599 -48.07380 41159 ft 554 kts 73°
2026-05-05 10:20 46.49049 -47.96772 41159 ft 554 kts 73°
2026-05-05 10:20 46.51483 -47.86177 41159 ft 553 kts 73°
2026-05-05 10:21 46.53910 -47.75561 41157 ft 553 kts 73°
2026-05-05 10:21 46.56327 -47.64940 41164 ft 553 kts 73°
2026-05-05 10:22 46.58714 -47.54395 41165 ft 552 kts 73°
2026-05-05 10:22 46.61105 -47.43780 41165 ft 552 kts 73°
2026-05-05 10:23 46.63482 -47.33174 41154 ft 552 kts 73°
2026-05-05 10:23 46.65852 -47.22547 41175 ft 552 kts 73°
2026-05-05 10:24 46.68212 -47.11915 41167 ft 551 kts 73°
2026-05-05 10:24 46.70559 -47.01283 41167 ft 551 kts 74°
2026-05-05 10:25 46.72894 -46.90652 41176 ft 551 kts 74°
2026-05-05 10:25 46.75221 -46.80005 41175 ft 550 kts 74°
2026-05-05 10:26 46.77532 -46.69378 41173 ft 549 kts 74°
2026-05-05 10:26 46.79829 -46.58760 41179 ft 549 kts 74°
2026-05-05 10:27 46.82118 -46.48122 41179 ft 549 kts 74°
2026-05-05 10:27 46.84378 -46.37565 41172 ft 548 kts 74°
2026-05-05 10:28 46.86645 -46.26922 41183 ft 548 kts 74°
2026-05-05 10:28 46.88901 -46.16277 41185 ft 548 kts 75°
2026-05-05 10:29 46.91148 -46.05615 41186 ft 548 kts 75°
2026-05-05 10:29 46.93385 -45.94947 41187 ft 548 kts 75°
2026-05-05 10:30 46.95612 -45.84270 41186 ft 548 kts 75°
2026-05-05 10:30 46.97828 -45.73590 41193 ft 548 kts 75°
2026-05-05 10:31 47.00035 -45.62899 41191 ft 548 kts 75°
2026-05-05 10:31 47.02231 -45.52200 41193 ft 548 kts 75°
2026-05-05 10:32 47.04402 -45.41566 41188 ft 548 kts 75°
2026-05-05 10:32 47.06579 -45.30843 41200 ft 549 kts 75°
2026-05-05 10:33 47.08753 -45.20085 41198 ft 550 kts 75°
2026-05-05 10:33 47.10914 -45.09326 41200 ft 549 kts 75°
2026-05-05 10:34 47.13068 -44.98547 41204 ft 549 kts 75°
2026-05-05 10:34 47.15209 -44.87770 41203 ft 549 kts 75°
2026-05-05 10:35 47.17339 -44.76992 41205 ft 549 kts 75°
2026-05-05 10:35 47.19445 -44.66271 41207 ft 549 kts 76°
2026-05-05 10:36 47.21552 -44.55491 41208 ft 548 kts 76°
2026-05-05 10:36 47.23647 -44.44705 41192 ft 549 kts 76°
2026-05-05 10:37 47.25738 -44.33885 41212 ft 550 kts 76°
2026-05-05 10:37 47.27817 -44.23065 41214 ft 549 kts 76°
2026-05-05 10:38 47.29888 -44.12222 41211 ft 549 kts 76°
2026-05-05 10:38 47.31947 -44.01385 41213 ft 549 kts 76°
2026-05-05 10:39 47.33995 -43.90539 41210 ft 549 kts 76°
2026-05-05 10:39 47.36029 -43.79705 41218 ft 548 kts 76°
2026-05-05 10:40 47.38054 -43.68860 41219 ft 548 kts 76°
2026-05-05 10:40 47.40056 -43.58071 41219 ft 548 kts 76°
2026-05-05 10:41 47.42059 -43.47216 41206 ft 547 kts 77°
2026-05-05 10:41 47.44052 -43.36346 41221 ft 549 kts 76°
2026-05-05 10:42 47.47032 -43.19979 41219 ft 550 kts 77°
2026-05-05 10:43 47.49006 -43.09058 41221 ft 550 kts 77°
2026-05-05 10:43 47.50639 -42.99975 41219 ft 549 kts 77°
2026-05-05 10:44 47.52906 -42.87286 41222 ft 549 kts 77°
2026-05-05 10:44 47.54843 -42.76367 41222 ft 549 kts 77°
2026-05-05 10:45 47.56458 -42.67220 41222 ft 548 kts 77°
2026-05-05 10:45 47.58376 -42.56286 41224 ft 548 kts 77°
2026-05-05 10:46 47.60284 -42.45352 41230 ft 548 kts 77°
2026-05-05 10:46 47.62179 -42.34418 41228 ft 548 kts 77°
2026-05-05 10:47 47.64053 -42.23539 41230 ft 548 kts 78°
2026-05-05 10:47 47.65927 -42.12593 41230 ft 547 kts 78°
2026-05-05 10:48 47.67801 -42.01575 41232 ft 547 kts 78°
2026-05-05 10:48 47.69643 -41.90677 41233 ft 547 kts 78°
2026-05-05 10:49 47.71486 -41.79708 41237 ft 547 kts 78°
2026-05-05 10:49 47.73317 -41.68737 41232 ft 547 kts 78°
2026-05-05 10:50 47.75140 -41.57743 41233 ft 547 kts 78°
2026-05-05 10:50 47.76950 -41.46758 41219 ft 547 kts 78°
2026-05-05 10:51 47.78752 -41.35747 41234 ft 548 kts 78°
2026-05-05 10:51 47.80535 -41.24786 41236 ft 549 kts 78°
2026-05-05 10:52 47.82318 -41.13751 41239 ft 549 kts 78°
2026-05-05 10:52 47.84091 -41.02705 41238 ft 549 kts 78°
2026-05-05 10:53 47.85853 -40.91651 41235 ft 549 kts 78°
2026-05-05 10:53 47.87603 -40.80596 41239 ft 548 kts 78°
2026-05-05 10:54 47.89342 -40.69542 41235 ft 548 kts 79°
2026-05-05 10:54 47.91072 -40.58471 41238 ft 548 kts 79°
2026-05-05 10:55 47.92791 -40.47392 41209 ft 548 kts 79°
2026-05-05 10:55 47.94499 -40.36303 41240 ft 549 kts 78°
2026-05-05 10:56 47.96189 -40.25264 41242 ft 550 kts 78°
2026-05-05 10:56 47.97880 -40.14133 41238 ft 550 kts 79°
2026-05-05 10:57 47.99574 -40.02984 41232 ft 550 kts 78°
2026-05-05 10:57 48.01984 -39.92139 41235 ft 550 kts 71°
2026-05-05 10:58 48.04650 -39.81418 41235 ft 550 kts 70°
2026-05-05 10:58 48.07350 -39.70710 41235 ft 550 kts 70°
2026-05-05 10:59 48.10033 -39.59991 41234 ft 550 kts 70°
2026-05-05 10:59 48.12693 -39.49268 41233 ft 549 kts 70°
2026-05-05 11:00 48.15335 -39.38547 41233 ft 549 kts 70°
2026-05-05 11:00 48.17951 -39.27878 41234 ft 549 kts 70°
2026-05-05 11:01 48.20582 -39.17100 41228 ft 552 kts 70°
2026-05-05 11:01 48.23227 -39.06213 41217 ft 557 kts 70°
2026-05-05 11:02 48.25878 -38.95248 41224 ft 560 kts 70°
2026-05-05 11:02 48.28519 -38.84269 41219 ft 559 kts 70°
2026-05-05 11:03 48.31147 -38.73291 41223 ft 558 kts 70°
2026-05-05 11:03 48.33744 -38.62385 41228 ft 557 kts 70°
2026-05-05 11:04 48.36347 -38.51400 41229 ft 557 kts 70°
2026-05-05 11:04 48.38934 -38.40426 41216 ft 556 kts 70°
2026-05-05 11:05 48.41505 -38.29466 41220 ft 555 kts 71°
2026-05-05 11:05 48.44066 -38.18494 41216 ft 555 kts 71°
2026-05-05 11:06 48.46615 -38.07519 41215 ft 555 kts 71°
2026-05-05 11:06 48.49146 -37.96563 41213 ft 553 kts 71°
2026-05-05 11:07 48.51659 -37.85627 41211 ft 552 kts 71°
2026-05-05 11:07 48.54163 -37.74677 41203 ft 552 kts 71°
2026-05-05 11:08 48.56655 -37.63723 41207 ft 552 kts 71°
2026-05-05 11:08 48.59140 -37.52748 41205 ft 552 kts 71°
2026-05-05 11:09 48.61614 -37.41758 41205 ft 552 kts 71°
2026-05-05 11:09 48.64075 -37.30769 41208 ft 553 kts 71°
2026-05-05 11:10 48.66525 -37.19773 41202 ft 551 kts 71°
2026-05-05 11:10 48.68962 -37.08779 41203 ft 551 kts 71°
2026-05-05 11:11 48.71368 -36.97868 41200 ft 550 kts 71°
2026-05-05 11:11 48.73785 -36.86847 41202 ft 550 kts 71°
2026-05-05 11:12 48.76184 -36.75849 41202 ft 548 kts 71°
2026-05-05 11:12 48.78566 -36.64872 41201 ft 548 kts 71°
2026-05-05 11:13 48.80939 -36.53880 41198 ft 548 kts 72°
2026-05-05 11:13 48.83298 -36.42890 41198 ft 547 kts 72°
2026-05-05 11:14 48.85629 -36.31975 41196 ft 546 kts 72°
2026-05-05 11:14 48.87961 -36.20998 41198 ft 546 kts 72°
2026-05-05 11:15 48.90280 -36.10019 41196 ft 546 kts 72°
2026-05-05 11:15 48.92590 -35.99028 41199 ft 544 kts 72°
2026-05-05 11:16 48.94882 -35.88055 41197 ft 543 kts 72°
2026-05-05 11:16 48.97160 -35.77099 41199 ft 543 kts 72°
2026-05-05 11:17 48.99425 -35.66140 41204 ft 543 kts 72°
2026-05-05 11:17 49.01665 -35.55242 41205 ft 543 kts 72°
2026-05-05 11:18 49.03914 -35.44243 41209 ft 543 kts 72°
2026-05-05 11:18 49.06151 -35.33237 41210 ft 543 kts 72°
2026-05-05 11:19 49.08377 -35.22225 41226 ft 543 kts 72°
2026-05-05 11:19 49.10592 -35.11209 41219 ft 543 kts 72°
2026-05-05 11:20 49.12796 -35.00181 41220 ft 543 kts 72°
2026-05-05 11:20 49.14991 -34.89140 41228 ft 543 kts 72°
2026-05-05 11:21 49.17172 -34.78103 41236 ft 543 kts 72°
2026-05-05 11:21 49.19340 -34.67074 41236 ft 542 kts 72°
2026-05-05 11:22 49.21495 -34.56044 41242 ft 541 kts 72°
2026-05-05 11:22 49.23639 -34.45007 41246 ft 541 kts 73°
2026-05-05 11:23 49.25775 -34.33947 41250 ft 540 kts 73°
2026-05-05 11:23 49.27890 -34.22933 41249 ft 539 kts 73°
2026-05-05 11:24 49.29996 -34.11905 41258 ft 539 kts 73°
2026-05-05 11:24 49.32086 -34.00891 41258 ft 538 kts 73°
2026-05-05 11:25 49.34165 -33.89875 41266 ft 537 kts 73°
2026-05-05 11:25 49.36225 -33.78893 41269 ft 535 kts 73°
2026-05-05 11:26 49.38271 -33.67923 41269 ft 535 kts 73°
2026-05-05 11:26 49.40307 -33.56939 41270 ft 535 kts 73°
2026-05-05 11:27 49.42332 -33.45951 41275 ft 535 kts 73°
2026-05-05 11:27 49.44350 -33.34937 41283 ft 535 kts 73°
2026-05-05 11:28 49.46355 -33.23925 41280 ft 535 kts 73°
2026-05-05 11:28 49.48350 -33.12901 41282 ft 535 kts 73°
2026-05-05 11:29 49.50321 -33.01947 41284 ft 534 kts 73°
2026-05-05 11:29 49.52288 -32.90942 41290 ft 533 kts 73°
2026-05-05 11:30 49.54246 -32.79926 41288 ft 533 kts 73°
2026-05-05 11:30 49.56191 -32.68916 41296 ft 533 kts 73°
2026-05-05 11:31 49.58126 -32.57888 41297 ft 533 kts 73°
2026-05-05 11:31 49.60050 -32.46862 41295 ft 533 kts 74°
2026-05-05 11:32 49.61643 -32.37680 41315 ft 533 kts 74°
2026-05-05 11:32 49.63548 -32.26632 41315 ft 533 kts 74°
2026-05-05 11:33 49.65442 -32.15581 41307 ft 532 kts 74°
2026-05-05 11:33 49.67321 -32.04543 41317 ft 532 kts 74°
2026-05-05 11:34 49.69192 -31.93486 41310 ft 532 kts 74°
2026-05-05 11:34 49.71052 -31.82425 41321 ft 532 kts 74°
2026-05-05 11:35 49.72900 -31.71360 41321 ft 531 kts 74°
2026-05-05 11:35 49.74736 -31.60293 41327 ft 531 kts 74°
2026-05-05 11:36 49.76546 -31.49315 41334 ft 531 kts 74°
2026-05-05 11:36 49.78361 -31.38237 41340 ft 531 kts 74°
2026-05-05 11:37 49.80163 -31.27165 41331 ft 529 kts 74°
2026-05-05 11:37 49.81948 -31.16121 41336 ft 529 kts 74°
2026-05-05 11:38 49.83723 -31.05069 41336 ft 529 kts 74°
2026-05-05 11:38 49.85488 -30.94008 41352 ft 529 kts 74°
2026-05-05 11:39 49.87240 -30.82950 41347 ft 527 kts 74°
2026-05-05 11:39 49.88977 -30.71914 41347 ft 527 kts 74°
2026-05-05 11:40 49.90692 -30.60947 41347 ft 526 kts 74°
2026-05-05 11:40 49.92408 -30.49897 41346 ft 527 kts 74°
2026-05-05 11:41 49.94111 -30.38851 41353 ft 526 kts 74°
2026-05-05 11:41 49.95803 -30.27806 41358 ft 526 kts 74°
2026-05-05 11:42 49.97484 -30.16757 41358 ft 526 kts 74°
2026-05-05 11:42 49.99155 -30.05695 41360 ft 526 kts 74°
2026-05-05 11:43 50.01321 -29.94902 41359 ft 521 kts 66°
2026-05-05 11:43 50.03907 -29.84379 41360 ft 520 kts 65°
2026-05-05 11:44 50.06554 -29.73892 41360 ft 520 kts 65°
2026-05-05 11:44 50.09189 -29.63401 41360 ft 520 kts 65°
2026-05-05 11:45 50.11806 -29.52881 41363 ft 519 kts 65°
2026-05-05 11:45 50.14394 -29.42403 41362 ft 519 kts 65°
2026-05-05 11:46 50.16964 -29.31947 41363 ft 519 kts 65°
2026-05-05 11:46 50.19539 -29.21426 41363 ft 519 kts 65°
2026-05-05 11:47 50.22102 -29.10902 41362 ft 519 kts 65°
2026-05-05 11:47 50.24659 -29.00352 41363 ft 519 kts 65°
2026-05-05 11:48 50.28475 -28.84514 41363 ft 519 kts 66°
2026-05-05 11:48 50.31008 -28.73938 41368 ft 518 kts 65°
2026-05-05 11:49 50.33525 -28.63376 41365 ft 518 kts 65°
2026-05-05 11:49 50.36017 -28.52867 41362 ft 518 kts 65°
2026-05-05 11:50 50.38518 -28.42269 41360 ft 518 kts 66°
2026-05-05 11:50 50.41008 -28.31670 41372 ft 518 kts 65°
2026-05-05 11:51 50.43489 -28.21052 41363 ft 518 kts 65°
2026-05-05 11:51 50.45960 -28.10425 41360 ft 518 kts 66°
2026-05-05 11:52 50.48422 -27.99788 41362 ft 518 kts 66°
2026-05-05 11:52 50.50875 -27.89135 41359 ft 518 kts 66°
2026-05-05 11:53 50.53315 -27.78481 41360 ft 518 kts 66°
2026-05-05 11:53 50.55749 -27.67805 41363 ft 518 kts 66°
2026-05-05 11:54 50.58168 -27.57138 41357 ft 518 kts 66°
2026-05-05 11:54 50.60578 -27.46456 41359 ft 518 kts 66°
2026-05-05 11:55 50.62979 -27.35762 41357 ft 518 kts 66°
2026-05-05 11:55 50.65370 -27.25060 41357 ft 518 kts 66°
2026-05-05 11:56 50.67748 -27.14356 41358 ft 518 kts 66°
2026-05-05 11:56 50.70106 -27.03692 41355 ft 518 kts 66°
2026-05-05 11:57 50.72467 -26.92956 41362 ft 518 kts 67°
2026-05-05 11:57 50.74816 -26.82221 41361 ft 518 kts 67°
2026-05-05 11:58 50.77158 -26.71463 41362 ft 518 kts 67°
2026-05-05 11:58 50.79490 -26.60693 41362 ft 518 kts 67°
2026-05-05 11:59 50.81809 -26.49925 41357 ft 518 kts 67°
2026-05-05 11:59 50.84106 -26.39205 41366 ft 518 kts 67°
2026-05-05 12:00 50.86422 -26.28340 41363 ft 518 kts 67°
2026-05-05 12:00 50.88699 -26.17595 41363 ft 518 kts 67°
2026-05-05 12:01 50.90984 -26.06759 41371 ft 518 kts 68°
2026-05-05 12:01 50.93259 -25.95909 41364 ft 518 kts 68°
2026-05-05 12:02 50.95523 -25.85058 41376 ft 518 kts 68°
2026-05-05 12:02 50.97775 -25.74204 41371 ft 518 kts 68°
2026-05-05 12:03 51.00005 -25.63402 41371 ft 518 kts 68°
2026-05-05 12:03 51.02239 -25.52515 41368 ft 518 kts 68°
2026-05-05 12:04 51.04463 -25.41621 41368 ft 518 kts 68°
2026-05-05 12:04 51.06679 -25.30704 41366 ft 518 kts 69°
2026-05-05 12:05 51.08884 -25.19780 41362 ft 519 kts 69°
2026-05-05 12:05 51.11079 -25.08843 41363 ft 519 kts 69°
2026-05-05 12:06 51.13264 -24.97896 41360 ft 519 kts 69°
2026-05-05 12:06 51.15438 -24.86947 41360 ft 519 kts 69°
2026-05-05 12:07 51.17603 -24.75973 41360 ft 519 kts 69°
2026-05-05 12:07 51.19743 -24.65068 41360 ft 519 kts 69°
2026-05-05 12:08 51.21887 -24.54083 41360 ft 519 kts 69°
2026-05-05 12:08 51.24020 -24.43088 41358 ft 519 kts 69°
2026-05-05 12:09 51.26143 -24.32078 41357 ft 519 kts 69°
2026-05-05 12:09 51.28256 -24.21065 41357 ft 519 kts 70°
2026-05-05 12:10 51.30360 -24.10031 41354 ft 519 kts 70°
2026-05-05 12:10 51.32452 -23.98993 41355 ft 519 kts 70°
2026-05-05 12:11 51.34534 -23.87945 41352 ft 519 kts 70°
2026-05-05 12:11 51.36592 -23.76957 41347 ft 519 kts 70°
2026-05-05 12:12 51.38654 -23.65885 41347 ft 519 kts 70°
2026-05-05 12:12 51.40709 -23.54783 41346 ft 519 kts 70°
2026-05-05 12:13 51.42737 -23.43763 41341 ft 519 kts 70°
2026-05-05 12:13 51.44766 -23.32668 41341 ft 519 kts 71°
2026-05-05 12:14 51.46786 -23.21561 41344 ft 519 kts 71°
2026-05-05 12:14 51.48794 -23.10443 41346 ft 518 kts 71°
2026-05-05 12:15 51.50792 -22.99322 41344 ft 519 kts 71°
2026-05-05 12:15 51.52780 -22.88182 41340 ft 519 kts 71°
2026-05-05 12:16 51.54758 -22.77034 41340 ft 519 kts 71°
2026-05-05 12:16 51.56725 -22.65872 41341 ft 518 kts 71°
2026-05-05 12:17 51.58683 -22.54696 41336 ft 518 kts 71°
2026-05-05 12:17 51.60627 -22.43531 41333 ft 518 kts 71°
2026-05-05 12:18 51.62550 -22.32415 41333 ft 519 kts 72°
2026-05-05 12:18 51.64474 -22.21221 41337 ft 518 kts 72°
2026-05-05 12:19 51.66386 -22.10024 41336 ft 519 kts 72°
2026-05-05 12:19 51.68290 -21.98810 41332 ft 519 kts 72°
2026-05-05 12:20 51.69863 -21.89485 41335 ft 519 kts 72°
2026-05-05 12:20 51.71745 -21.78260 41329 ft 519 kts 72°
2026-05-05 12:21 51.73622 -21.66998 41330 ft 519 kts 72°
2026-05-05 12:21 51.75482 -21.55758 41325 ft 519 kts 72°
2026-05-05 12:22 51.77335 -21.44491 41322 ft 519 kts 72°
2026-05-05 12:22 51.79176 -21.33221 41336 ft 519 kts 73°
2026-05-05 12:23 51.80993 -21.22017 41319 ft 519 kts 73°
2026-05-05 12:23 51.82813 -21.10728 41318 ft 519 kts 73°
2026-05-05 12:24 51.84622 -20.99429 41314 ft 519 kts 73°
2026-05-05 12:24 51.86420 -20.88118 41327 ft 519 kts 73°
2026-05-05 12:25 51.88208 -20.76794 41317 ft 519 kts 73°
2026-05-05 12:25 51.89984 -20.65468 41314 ft 519 kts 73°
2026-05-05 12:26 51.91753 -20.54109 41312 ft 519 kts 73°
2026-05-05 12:26 51.93498 -20.42828 41309 ft 519 kts 73°
2026-05-05 12:27 51.95244 -20.31457 41309 ft 519 kts 73°
2026-05-05 12:27 51.96980 -20.20074 41308 ft 519 kts 73°
2026-05-05 12:28 51.98703 -20.08698 41308 ft 519 kts 74°
2026-05-05 12:28 51.99980 -19.97147 41320 ft 522 kts 84°
2026-05-05 12:29 52.00361 -19.85353 41304 ft 523 kts 86°
2026-05-05 12:29 52.00576 -19.73619 41301 ft 523 kts 86°
2026-05-05 12:30 52.00766 -19.61815 41302 ft 523 kts 86°
2026-05-05 12:30 52.00961 -19.50006 41298 ft 523 kts 86°
2026-05-05 12:31 52.01154 -19.38203 41305 ft 523 kts 86°
2026-05-05 12:31 52.01337 -19.26403 41287 ft 523 kts 87°
2026-05-05 12:32 52.01508 -19.14604 41288 ft 523 kts 87°
2026-05-05 12:32 52.01667 -19.02785 41285 ft 523 kts 87°
2026-05-05 12:33 52.01814 -18.90975 41294 ft 523 kts 87°
2026-05-05 12:33 52.01948 -18.79241 41280 ft 523 kts 87°
2026-05-05 12:34 52.02071 -18.67442 41285 ft 522 kts 87°
2026-05-05 12:34 52.02183 -18.55644 41286 ft 522 kts 87°
2026-05-05 12:35 52.02282 -18.43850 41280 ft 523 kts 88°
2026-05-05 12:35 52.02370 -18.32049 41274 ft 523 kts 88°
2026-05-05 12:36 52.02446 -18.20359 41282 ft 522 kts 88°
2026-05-05 12:36 52.02510 -18.08561 41278 ft 522 kts 88°
2026-05-05 12:37 52.02563 -17.96749 41266 ft 522 kts 88°
2026-05-05 12:37 52.02604 -17.84947 41269 ft 522 kts 88°
2026-05-05 12:38 52.02632 -17.73148 41268 ft 522 kts 88°
2026-05-05 12:38 52.02650 -17.61354 41265 ft 522 kts 88°
2026-05-05 12:39 52.02655 -17.49563 41260 ft 522 kts 88°
2026-05-05 12:39 52.02649 -17.37824 41269 ft 522 kts 88°
2026-05-05 12:40 52.02631 -17.26023 41255 ft 522 kts 89°
2026-05-05 12:40 52.02601 -17.14230 41255 ft 522 kts 89°
2026-05-05 12:41 52.02559 -17.02450 41252 ft 522 kts 89°
2026-05-05 12:41 52.02506 -16.90658 41249 ft 522 kts 89°
2026-05-05 12:42 52.02441 -16.78873 41247 ft 522 kts 89°
2026-05-05 12:42 52.02364 -16.67104 41246 ft 521 kts 89°
2026-05-05 12:43 52.02276 -16.55406 41241 ft 521 kts 89°
2026-05-05 12:43 52.02176 -16.43640 41238 ft 521 kts 89°
2026-05-05 12:44 52.02064 -16.31864 41246 ft 521 kts 89°
2026-05-05 12:44 52.01940 -16.20103 41236 ft 521 kts 90°
2026-05-05 12:45 52.01805 -16.08343 41234 ft 521 kts 90°
2026-05-05 12:45 52.01658 -15.96594 41231 ft 521 kts 90°
2026-05-05 12:46 52.01500 -15.84837 41243 ft 521 kts 90°
2026-05-05 12:46 52.01330 -15.73095 41231 ft 520 kts 90°
2026-05-05 12:47 52.01148 -15.61355 41220 ft 520 kts 90°
2026-05-05 12:47 52.00955 -15.49617 41224 ft 520 kts 90°
2026-05-05 12:48 52.00750 -15.37877 41226 ft 520 kts 90°
2026-05-05 12:48 52.00534 -15.26227 41225 ft 520 kts 90°
2026-05-05 12:49 52.00306 -15.14508 41219 ft 519 kts 90°
2026-05-05 12:49 52.00067 -15.02787 41221 ft 519 kts 90°
2026-05-05 12:50 51.99918 -14.91078 41223 ft 519 kts 88°
2026-05-05 12:50 52.00001 -14.79373 41216 ft 519 kts 88°
2026-05-05 12:51 52.00084 -14.67664 41219 ft 518 kts 88°
2026-05-05 12:51 52.00116 -14.55961 41219 ft 518 kts 89°
2026-05-05 12:52 52.00117 -14.44261 41216 ft 519 kts 89°
2026-05-05 12:52 52.00103 -14.32553 41216 ft 519 kts 89°
2026-05-05 12:53 52.00078 -14.20852 41208 ft 518 kts 89°
2026-05-05 12:53 52.00044 -14.09156 41208 ft 518 kts 89°
2026-05-05 12:54 51.99998 -13.91690 41203 ft 518 kts 89°
2026-05-05 12:55 52.00020 -13.79990 41203 ft 518 kts 88°
2026-05-05 12:55 52.00035 -13.68313 41197 ft 517 kts 89°
2026-05-05 12:56 52.00030 -13.56627 41195 ft 517 kts 89°
2026-05-05 12:56 52.00009 -13.44957 41195 ft 517 kts 89°
2026-05-05 12:57 51.99975 -13.33281 41192 ft 517 kts 89°
2026-05-05 12:57 51.99930 -13.21630 41189 ft 516 kts 89°
2026-05-05 12:58 51.99874 -13.10050 41189 ft 516 kts 89°
2026-05-05 12:58 51.99807 -12.98402 41184 ft 516 kts 89°
2026-05-05 12:59 51.99728 -12.86755 41184 ft 516 kts 89°
2026-05-05 12:59 51.99638 -12.75114 41184 ft 515 kts 90°
2026-05-05 13:00 51.99481 -12.57669 41181 ft 515 kts 90°
2026-05-05 13:01 51.99232 -12.34430 41170 ft 515 kts 90°
2026-05-05 13:01 51.99090 -12.22817 41170 ft 515 kts 90°
2026-05-05 13:02 51.98938 -12.11242 41167 ft 516 kts 90°
2026-05-05 13:02 51.98773 -11.99601 41165 ft 516 kts 90°
2026-05-05 13:03 51.98597 -11.87962 41165 ft 516 kts 90°
2026-05-05 13:03 51.98409 -11.76325 41161 ft 516 kts 91°
2026-05-05 13:04 51.98209 -11.64682 41157 ft 516 kts 91°
2026-05-05 13:04 51.97999 -11.53045 41154 ft 516 kts 91°
2026-05-05 13:05 51.97778 -11.41475 41154 ft 516 kts 91°
2026-05-05 13:05 51.97544 -11.29832 41157 ft 515 kts 91°
2026-05-05 13:06 51.97299 -11.18223 41148 ft 514 kts 91°
2026-05-05 13:06 51.97044 -11.06637 41148 ft 514 kts 91°
2026-05-05 13:07 51.96777 -10.95056 41143 ft 514 kts 91°
2026-05-05 13:07 51.96499 -10.83479 41143 ft 514 kts 91°
2026-05-05 13:08 51.96211 -10.71977 41141 ft 513 kts 92°
2026-05-05 13:08 51.95911 -10.60421 41135 ft 513 kts 92°
2026-05-05 13:09 51.95599 -10.48865 41136 ft 513 kts 92°
2026-05-05 13:09 51.95330 -10.39186 41127 ft 513 kts 92°
2026-05-05 13:10 51.95000 -10.27722 41126 ft 513 kts 92°
2026-05-05 13:10 51.94657 -10.16174 41126 ft 513 kts 92°
2026-05-05 13:11 51.94302 -10.04623 41122 ft 513 kts 92°
2026-05-05 13:11 51.93936 -9.93077 41122 ft 513 kts 92°
2026-05-05 13:12 51.93559 -9.81544 41131 ft 513 kts 92°
2026-05-05 13:12 51.93170 -9.70008 41113 ft 513 kts 92°
2026-05-05 13:13 51.92770 -9.58485 41113 ft 513 kts 92°
2026-05-05 13:13 51.92359 -9.46949 41118 ft 513 kts 92°
2026-05-05 13:14 51.91940 -9.35483 41115 ft 513 kts 93°
2026-05-05 13:14 51.91506 -9.23959 41109 ft 512 kts 93°
2026-05-05 13:15 51.91063 -9.12448 41108 ft 512 kts 93°
2026-05-05 13:15 51.90607 -9.00943 41102 ft 512 kts 93°
2026-05-05 13:16 51.90140 -8.89440 41106 ft 512 kts 93°
2026-05-05 13:16 51.89662 -8.77935 41101 ft 511 kts 93°
2026-05-05 13:17 51.89174 -8.66450 41101 ft 511 kts 93°
2026-05-05 13:17 51.88675 -8.54983 41102 ft 511 kts 93°
2026-05-05 13:18 51.88165 -8.43509 41091 ft 511 kts 94°
2026-05-05 13:18 51.87647 -8.32103 41088 ft 511 kts 94°
2026-05-05 13:19 51.87114 -8.20642 41086 ft 510 kts 94°
2026-05-05 13:19 51.86571 -8.09193 41085 ft 510 kts 94°
2026-05-05 13:20 51.86017 -7.97741 41086 ft 510 kts 94°
2026-05-05 13:20 51.85452 -7.86299 41086 ft 510 kts 94°
2026-05-05 13:21 51.84880 -7.74947 41084 ft 510 kts 94°
2026-05-05 13:21 51.84293 -7.63523 41083 ft 509 kts 94°
2026-05-05 13:22 51.83697 -7.52122 41083 ft 509 kts 94°
2026-05-05 13:22 51.83089 -7.40716 41083 ft 509 kts 94°
2026-05-05 13:23 51.82469 -7.29303 41085 ft 509 kts 95°
2026-05-05 13:23 51.81838 -7.17893 41077 ft 509 kts 95°
2026-05-05 13:24 51.81197 -7.06486 41078 ft 509 kts 95°
2026-05-05 13:24 51.80544 -6.95088 41078 ft 509 kts 95°
2026-05-05 13:25 51.79880 -6.83679 41078 ft 509 kts 95°
2026-05-05 13:25 51.79210 -6.72368 41075 ft 509 kts 95°
2026-05-05 13:26 51.78526 -6.60988 41072 ft 509 kts 95°
2026-05-05 13:26 51.77767 -6.49635 41073 ft 509 kts 97°
2026-05-05 13:27 51.76708 -6.38336 41075 ft 509 kts 99°
2026-05-05 13:27 51.75595 -6.27046 41075 ft 509 kts 98°
2026-05-05 13:28 51.74512 -6.15745 41072 ft 510 kts 98°
2026-05-05 13:28 51.73442 -6.04416 41069 ft 510 kts 98°
2026-05-05 13:29 51.72369 -5.93102 41067 ft 510 kts 98°
2026-05-05 13:29 51.71283 -5.81787 41067 ft 511 kts 98°
2026-05-05 13:30 51.70185 -5.70481 41067 ft 511 kts 99°
2026-05-05 13:30 51.69074 -5.59159 41059 ft 511 kts 99°
2026-05-05 13:31 51.67957 -5.47899 41052 ft 511 kts 99°
2026-05-05 13:31 51.66825 -5.36596 41051 ft 511 kts 99°
2026-05-05 13:32 51.65681 -5.25297 41050 ft 511 kts 99°
2026-05-05 13:32 51.64527 -5.14004 41042 ft 511 kts 99°
2026-05-05 13:33 51.63361 -5.02705 41043 ft 511 kts 99°
2026-05-05 13:33 51.62183 -4.91399 41043 ft 511 kts 99°
2026-05-05 13:34 51.61004 -4.80196 41036 ft 511 kts 99°
2026-05-05 13:34 51.59808 -4.68937 41034 ft 510 kts 99°
2026-05-05 13:35 51.58601 -4.57690 41026 ft 510 kts 99°
2026-05-05 13:35 51.57383 -4.46439 41026 ft 510 kts 100°
2026-05-05 13:36 51.56157 -4.35217 41020 ft 510 kts 100°
2026-05-05 13:36 51.54917 -4.23975 41021 ft 511 kts 100°
2026-05-05 13:37 51.53664 -4.12722 41015 ft 511 kts 100°
2026-05-05 13:37 51.52400 -4.01465 41010 ft 512 kts 100°
2026-05-05 13:38 51.51126 -3.90226 41009 ft 512 kts 100°
2026-05-05 13:38 51.49847 -3.78997 41004 ft 510 kts 101°
2026-05-05 13:39 51.48564 -3.67895 40996 ft 509 kts 101°
2026-05-05 13:39 51.47594 -3.56656 40994 ft 509 kts 96°
2026-05-05 13:40 51.46904 -3.45368 40993 ft 509 kts 95°
2026-05-05 13:40 51.46250 -3.34055 41021 ft 509 kts 96°
2026-05-05 13:41 51.45583 -3.22751 41020 ft 509 kts 96°
2026-05-05 13:41 51.44902 -3.11513 41016 ft 509 kts 96°
2026-05-05 13:42 51.44203 -3.00220 41008 ft 509 kts 96°
2026-05-05 13:42 51.43492 -2.88929 41001 ft 509 kts 96°
2026-05-05 13:43 51.42769 -2.77618 40993 ft 510 kts 96°
2026-05-05 13:43 51.42035 -2.66299 40993 ft 511 kts 96°
2026-05-05 13:44 51.41290 -2.54978 40994 ft 511 kts 96°
2026-05-05 13:44 51.40538 -2.43729 40990 ft 511 kts 96°
2026-05-05 13:45 51.39771 -2.32404 40987 ft 512 kts 97°
2026-05-05 13:45 51.38991 -2.21072 40981 ft 511 kts 97°
2026-05-05 13:46 51.38202 -2.09766 40971 ft 511 kts 97°
2026-05-05 13:46 51.37402 -1.98446 40972 ft 511 kts 97°
2026-05-05 13:47 51.36592 -1.87133 40967 ft 512 kts 97°
2026-05-05 13:47 51.35769 -1.75846 40965 ft 511 kts 97°
2026-05-05 13:48 51.34935 -1.64552 40958 ft 511 kts 98°
2026-05-05 13:48 51.34093 -1.53253 40958 ft 511 kts 97°
2026-05-05 13:49 51.33242 -1.41991 40956 ft 511 kts 98°
2026-05-05 13:49 51.32375 -1.30727 40952 ft 509 kts 98°
2026-05-05 13:50 51.31503 -1.19524 40960 ft 508 kts 98°
2026-05-05 13:50 51.30744 -1.08306 40964 ft 508 kts 96°
2026-05-05 13:51 51.30239 -0.97035 40966 ft 508 kts 95°
2026-05-05 13:51 51.29734 -0.85792 40966 ft 507 kts 95°
2026-05-05 13:52 51.29180 -0.74643 40966 ft 506 kts 96°
2026-05-05 13:52 51.28590 -0.63433 40966 ft 506 kts 96°
2026-05-05 13:53 51.27987 -0.52236 40959 ft 506 kts 96°
2026-05-05 13:53 51.27374 -0.41027 40937 ft 506 kts 96°
2026-05-05 13:54 51.26750 -0.29817 40939 ft 506 kts 96°
2026-05-05 13:54 51.26117 -0.18621 40939 ft 506 kts 96°
2026-05-05 13:55 51.25474 -0.07418 40939 ft 506 kts 96°
2026-05-05 13:55 51.24820 0.03783 41011 ft 506 kts 96°
2026-05-05 13:56 51.24160 0.14971 41063 ft 506 kts 97°
2026-05-05 13:56 51.23481 0.26159 41110 ft 506 kts 97°
2026-05-05 13:57 51.22802 0.37266 41130 ft 506 kts 97°
2026-05-05 13:57 51.22102 0.48457 41126 ft 506 kts 97°
2026-05-05 13:58 51.21512 0.57744 41121 ft 507 kts 97°
2026-05-05 13:58 51.20797 0.68952 41079 ft 508 kts 97°
2026-05-05 13:59 51.19695 0.85754 41009 ft 508 kts 97°
2026-05-05 14:00 51.18596 1.02176 40946 ft 509 kts 97°
2026-05-05 14:00 51.17831 1.13416 40946 ft 511 kts 97°
2026-05-05 14:01 51.17059 1.24609 40951 ft 510 kts 97°
2026-05-05 14:01 51.16272 1.35860 40949 ft 511 kts 97°
2026-05-05 14:02 51.15631 1.47134 40946 ft 512 kts 95°
2026-05-05 14:02 51.15138 1.58449 40947 ft 512 kts 95°
2026-05-05 14:03 51.14622 1.69770 40946 ft 512 kts 95°
2026-05-05 14:03 51.14065 1.81078 40940 ft 512 kts 96°
2026-05-05 14:04 51.13484 1.92381 40933 ft 512 kts 96°
2026-05-05 14:04 51.12896 2.03616 40938 ft 511 kts 96°
2026-05-05 14:05 51.12296 2.14898 40937 ft 511 kts 96°
2026-05-05 14:05 51.11682 2.26173 40933 ft 512 kts 96°
2026-05-05 14:06 51.11057 2.37453 40921 ft 512 kts 96°
2026-05-05 14:06 51.10421 2.48757 40919 ft 513 kts 97°
2026-05-05 14:07 51.09775 2.60050 40922 ft 513 kts 96°
2026-05-05 14:07 51.08387 2.71152 40914 ft 510 kts 107°
2026-05-05 14:08 51.06481 2.82032 40912 ft 510 kts 108°
2026-05-05 14:08 51.04487 2.92848 40910 ft 510 kts 108°
2026-05-05 14:09 51.02486 3.03658 40907 ft 510 kts 108°
2026-05-05 14:09 51.00489 3.14466 40899 ft 510 kts 108°
2026-05-05 14:10 50.98489 3.25266 40887 ft 510 kts 108°
2026-05-05 14:10 50.96479 3.36060 40883 ft 509 kts 108°
2026-05-05 14:11 50.94463 3.46818 40878 ft 509 kts 108°
2026-05-05 14:11 50.92437 3.57566 40878 ft 509 kts 108°
2026-05-05 14:12 50.90414 3.68234 40873 ft 508 kts 108°
2026-05-05 14:12 50.88370 3.78959 40870 ft 508 kts 109°
2026-05-05 14:13 50.86315 3.89674 40872 ft 509 kts 109°
2026-05-05 14:13 50.84248 4.00390 40877 ft 509 kts 109°
2026-05-05 14:14 50.82173 4.11090 40878 ft 509 kts 109°
2026-05-05 14:14 50.80087 4.21791 40874 ft 509 kts 109°
2026-05-05 14:15 50.77994 4.32463 40881 ft 508 kts 109°
2026-05-05 14:15 50.75896 4.43103 40882 ft 507 kts 109°
2026-05-05 14:16 50.73786 4.53747 40881 ft 507 kts 109°
2026-05-05 14:16 50.71682 4.64298 40880 ft 507 kts 109°
2026-05-05 14:17 50.69554 4.74917 40875 ft 507 kts 110°
2026-05-05 14:17 50.67417 4.85518 40869 ft 506 kts 110°
2026-05-05 14:18 50.65277 4.96090 40871 ft 506 kts 110°
2026-05-05 14:18 50.63111 5.06652 40876 ft 506 kts 110°
2026-05-05 14:19 50.60945 5.17118 40865 ft 505 kts 110°
2026-05-05 14:19 50.58762 5.27626 40869 ft 505 kts 110°
2026-05-05 14:20 50.56571 5.38129 40866 ft 505 kts 110°
2026-05-05 14:20 50.54373 5.48620 40862 ft 505 kts 110°
2026-05-05 14:21 50.52164 5.59104 40853 ft 504 kts 111°
2026-05-05 14:21 50.50036 5.69612 40862 ft 505 kts 108°
2026-05-05 14:22 50.48156 5.80232 40852 ft 505 kts 108°
2026-05-05 14:22 50.46298 5.90794 40852 ft 505 kts 108°
2026-05-05 14:23 50.44366 6.01474 40845 ft 505 kts 108°
2026-05-05 14:23 50.42433 6.11963 40837 ft 504 kts 108°
2026-05-05 14:24 50.40477 6.22504 40836 ft 503 kts 109°
2026-05-05 14:24 50.38509 6.33047 40829 ft 503 kts 109°
2026-05-05 14:25 50.36537 6.43565 40829 ft 503 kts 109°
2026-05-05 14:25 50.34554 6.54081 40837 ft 504 kts 109°
2026-05-05 14:26 50.32570 6.64540 40836 ft 504 kts 109°
2026-05-05 14:26 50.30566 6.75051 40825 ft 504 kts 109°
2026-05-05 14:27 50.28552 6.85552 40830 ft 504 kts 109°
2026-05-05 14:27 50.26529 6.96046 40829 ft 504 kts 109°
2026-05-05 14:28 50.24494 7.06542 40829 ft 504 kts 109°
2026-05-05 14:28 50.22449 7.17031 40830 ft 504 kts 110°
2026-05-05 14:29 50.20397 7.27500 40820 ft 504 kts 110°
2026-05-05 14:29 50.18333 7.37972 40817 ft 504 kts 110°
2026-05-05 14:30 50.16262 7.48424 40845 ft 504 kts 110°
2026-05-05 14:30 50.14195 7.58801 40825 ft 504 kts 110°
2026-05-05 14:31 50.12107 7.69228 40811 ft 504 kts 110°
2026-05-05 14:31 50.10008 7.79655 40813 ft 504 kts 110°
2026-05-05 14:32 50.07900 7.90068 40830 ft 504 kts 110°
2026-05-05 14:32 50.05782 8.00472 40838 ft 504 kts 110°
2026-05-05 14:33 50.03657 8.10856 40845 ft 504 kts 110°
2026-05-05 14:33 50.01519 8.21252 40850 ft 504 kts 110°
2026-05-05 14:34 49.99375 8.31627 40850 ft 504 kts 111°
2026-05-05 14:34 49.97235 8.41929 40851 ft 504 kts 111°
2026-05-05 14:35 49.94926 8.52189 40830 ft 501 kts 117°
2026-05-05 14:35 49.91694 8.61719 40821 ft 499 kts 122°
2026-05-05 14:36 49.88261 8.71060 40823 ft 498 kts 123°
2026-05-05 14:36 49.84791 8.80366 40822 ft 498 kts 123°
2026-05-05 14:37 49.81315 8.89657 40824 ft 498 kts 123°
2026-05-05 14:37 49.77867 8.98893 40830 ft 499 kts 123°
2026-05-05 14:38 49.74393 9.08168 40815 ft 498 kts 123°
2026-05-05 14:38 49.70902 9.17457 40826 ft 498 kts 123°
2026-05-05 14:39 49.67409 9.26719 40831 ft 498 kts 123°
2026-05-05 14:39 49.63916 9.35956 40827 ft 498 kts 123°
2026-05-05 14:40 49.59960 9.44650 40829 ft 493 kts 133°
2026-05-05 14:40 49.55500 9.52683 40824 ft 493 kts 134°
2026-05-05 14:41 49.50950 9.60609 40848 ft 493 kts 135°
2026-05-05 14:41 49.46395 9.68512 40857 ft 494 kts 135°
2026-05-05 14:42 49.41883 9.76352 40860 ft 489 kts 135°
2026-05-05 14:42 49.37417 9.84113 40695 ft 482 kts 134°
2026-05-05 14:43 49.35199 9.87957 40441 ft 481 kts 135°
2026-05-05 14:43 49.32976 9.91791 40105 ft 479 kts 135°
2026-05-05 14:43 49.30762 9.95601 39361 ft 480 kts 135°
2026-05-05 14:43 49.28534 9.99425 38567 ft 482 kts 135°
2026-05-05 14:44 49.26299 10.03259 37668 ft 482 kts 135°
2026-05-05 14:44 49.24066 10.07086 36857 ft 480 kts 135°
2026-05-05 14:44 49.21845 10.10890 36094 ft 477 kts 135°
2026-05-05 14:44 49.19640 10.14663 35309 ft 474 kts 135°
2026-05-05 14:45 49.17453 10.18411 34530 ft 471 kts 135°
2026-05-05 14:45 49.15307 10.22081 33714 ft 468 kts 135°
2026-05-05 14:45 49.13133 10.25782 32723 ft 467 kts 135°
2026-05-05 14:45 49.10927 10.29412 31788 ft 466 kts 136°
2026-05-05 14:46 49.08692 10.32990 30846 ft 466 kts 137°
2026-05-05 14:46 49.06443 10.36553 29844 ft 467 kts 137°
2026-05-05 14:46 49.04190 10.40120 28898 ft 465 kts 136°
2026-05-05 14:46 49.01967 10.43650 28117 ft 459 kts 136°
2026-05-05 14:47 48.99776 10.47144 27389 ft 453 kts 136°
2026-05-05 14:47 48.97616 10.50593 26684 ft 447 kts 136°
2026-05-05 14:47 48.96172 10.52894 26197 ft 444 kts 136°
2026-05-05 14:47 48.94050 10.56272 25483 ft 440 kts 136°
2026-05-05 14:48 48.91970 10.59583 24756 ft 436 kts 136°
2026-05-05 14:48 48.89854 10.62943 24043 ft 432 kts 136°
2026-05-05 14:48 48.87807 10.66188 23357 ft 429 kts 136°
2026-05-05 14:48 48.85758 10.69434 22564 ft 424 kts 136°
2026-05-05 14:49 48.83726 10.72649 21857 ft 419 kts 136°
2026-05-05 14:49 48.81722 10.75817 21155 ft 413 kts 136°
2026-05-05 14:49 48.79737 10.78953 20478 ft 409 kts 136°
2026-05-05 14:49 48.77773 10.82042 19789 ft 405 kts 136°
2026-05-05 14:50 48.75818 10.85107 19080 ft 402 kts 136°
2026-05-05 14:50 48.73881 10.88136 18378 ft 400 kts 136°
2026-05-05 14:50 48.71944 10.91164 17608 ft 399 kts 136°
2026-05-05 14:50 48.70021 10.94167 16849 ft 396 kts 136°
2026-05-05 14:51 48.68110 10.97155 16144 ft 393 kts 136°
2026-05-05 14:51 48.66213 11.00114 15434 ft 391 kts 137°
2026-05-05 14:51 48.64323 11.03050 14712 ft 389 kts 137°
2026-05-05 14:51 48.62439 11.05972 14206 ft 380 kts 137°
2026-05-05 14:52 48.60643 11.08763 14069 ft 360 kts 137°
2026-05-05 14:52 48.58935 11.11393 13945 ft 341 kts 139°
2026-05-05 14:52 48.57138 11.13588 13817 ft 323 kts 147°
2026-05-05 14:52 48.55339 11.15512 13699 ft 311 kts 148°
2026-05-05 14:53 48.53693 11.17631 13255 ft 313 kts 135°
2026-05-05 14:53 48.52527 11.20424 12746 ft 320 kts 115°
2026-05-05 14:53 48.52081 11.23781 12540 ft 339 kts 94°
2026-05-05 14:53 48.52352 11.27334 12476 ft 349 kts 81°
2026-05-05 14:54 48.52874 11.30921 12018 ft 344 kts 79°
2026-05-05 14:54 48.53397 11.34373 11560 ft 339 kts 80°
2026-05-05 14:54 48.53907 11.37815 11246 ft 335 kts 79°
2026-05-05 14:54 48.54405 11.41239 10934 ft 334 kts 80°
2026-05-05 14:55 48.54894 11.44641 10706 ft 323 kts 80°
2026-05-05 14:55 48.55347 11.47795 10466 ft 294 kts 80°
2026-05-05 14:55 48.55773 11.50803 10237 ft 296 kts 81°
2026-05-05 14:55 48.56201 11.53850 10007 ft 296 kts 81°
2026-05-05 14:56 48.56624 11.56888 9696 ft 295 kts 80°
2026-05-05 14:56 48.56799 11.59941 9323 ft 289 kts 97°
2026-05-05 14:56 48.56347 11.62866 9064 ft 285 kts 111°
2026-05-05 14:56 48.55698 11.65697 8805 ft 285 kts 112°
2026-05-05 14:57 48.55036 11.68515 8559 ft 285 kts 111°
2026-05-05 14:57 48.54378 11.71339 8313 ft 285 kts 112°
2026-05-05 14:57 48.53724 11.74158 8049 ft 284 kts 111°
2026-05-05 14:57 48.53073 11.76971 7786 ft 285 kts 111°
2026-05-05 14:58 48.52417 11.79808 7543 ft 286 kts 111°
2026-05-05 14:58 48.51763 11.82639 7284 ft 286 kts 111°
2026-05-05 14:58 48.51106 11.85470 7010 ft 285 kts 111°
2026-05-05 14:58 48.50110 11.88008 6840 ft 282 kts 131°
2026-05-05 14:59 48.48942 11.90384 6779 ft 283 kts 123°
2026-05-05 14:59 48.48193 11.93116 6759 ft 286 kts 104°